Location: *
(44.1392°N, 4.8079°E)
Time: 14:26:49
(UTC+00:00)

Lacrosse 5 rocket - Pass Details

Date: 25 October 2021
Orbit: 459 x 633 km, 57.0° (Epoch: 04 December)

Event Time Altitude Azimuth Distance (km) Brightness Sun altitude
Exits shadow 04:45:48 12° 326° (NW) 1,764 3.5 -15.4°
Maximum altitude 04:47:44 16° 355° (N) 1,598 3.6 -15.1°
Drops below altitude 10° 04:50:29 10° 33° (NNE) 1,967 4.5 -14.6°
Sets 04:53:39 0° 55° (NE) 2,900 5.9 -14.0°
